Lid_Strength_Index
14 14 15 15 14 14 14 15 16 16 16 16 16 16 16 16 16 17 17 17 17 17 16 16 15 14 13 13 14 14 14 14 15 14 14 16 17 15 15 14 14 14 13
14 14 15 14 15 15 15 15 14 14 13 14 14 16 16 16 17 18 17 17 17 17 17 17 16 14 14 14 13 13 14 13 14 15 14 15 17 16 15 15 15 14 14
13 13 13 13 14 14 13 13 13 13 14 14 14 14 15 16 16 16 17 17 17 17 16 15 15 15 15 14 14 14 13 13 14 15 15 13 16 17 16 16 15 15 15
13 14 14 14 14 14 14 14 14 14 14 14 14 14 14 15 15 14 14 15 15 16 15 15 14 14 14 14 13 13 13 14 14 14 15 14 17 17 16 16 17 16 16
13 13 13 13 13 13 13 13 13 13 13 13 13 14 14 14 14 15 15 15 15 15 15 14 14 13 12 12 13 13 13 13 14 14 15 15 16 18 17 16 16 16 17
14 14 13 13 12 13 13 13 13 12 13 12 13 13 13 12 11 11 12 14 14 15 16 15 15 14 13 11 11 10 11 12 13 13 14 15 15 15 14 15 15 16 18
13 13 13 12 13 12 12 13 14 14 14 14 14 14 14 14 11 11 11 12 13 14 15 15 15 14 14 14 12 11 11 10 9 11 12 13 13 12 13 14 15 15 14
13 14 13 13 15 14 15 15 15 15 16 16 16 16 16 15 13 13 12 14 14 14 14 14 15 15 15 15 14 14 14 13 12 12 11 11 10 11 11 12 13 13 13
14 14 14 15 17 16 18 17 17 18 18 19 18 19 19 19 16 15 15 16 16 16 15 15 14 15 14 13 15 16 15 14 11 9 9 9 8 7 8 11 14 14 15
15 15 16 16 18 19 19 20 20 20 20 20 20 20 20 21 17 16 16 17 18 17 17 16 15 15 13 12 14 15 16 15 12 11 11 10 9 9 8 8 11 13 14
16 17 17 18 20 20 21 21 22 22 22 22 22 22 21 20 20 16 15 16 17 18 17 17 15 13 13 13 11 13 13 12 11 11 10 10 10 10 10 9 8 11 12
18 19 20 21 21 20 22 22 22 23 24 24 24 23 21 20 18 17 15 14 14 17 17 17 17 15 14 13 14 13 11 10 11 11 10 10 10 10 10 9 8 8 9
23 23 23 22 21 21 22 23 24 24 24 24 23 24 23 21 20 17 15 14 14 16 17 16 14 13 13 14 13 13 13 13 13 11 11 10 9 9 8 8 8 8 9
27 24 22 22 22 22 21 22 24 25 25 24 24 24 23 21 19 17 17 17 15 15 15 16 16 14 13 14 15 14 14 14 13 12 10 9 8 9 9 8 8 8 10
23 22 22 21 22 22 22 23 23 22 22 22 20 19 19 19 18 14 12 13 13 13 13 14 16 18 19 18 17 16 15 15 12 10 10 10 9 9 9 8 9 9 11
23 22 21 21 22 22 23 23 19 18 17 16 15 16 17 14 13 11 10 10 9 10 13 14 15 16 18 17 18 18 16 15 13 11 9 9 10 9 9 9 9 10 12
24 22 22 22 22 23 23 24 25 21 17 17 16 15 14 13 12 11 10 10 9 10 14 15 15 16 17 18 17 17 17 15 12 9 9 9 9 8 9 10 10 11 12
25 22 22 23 23 23 23 23 24 24 24 23 18 17 15 14 13 12 11 11 16 14 15 16 17 16 17 18 17 17 17 15 14 12 10 8 7 8 9 10 11 12 12
23 23 23 22 23 24 23 24 23 24 23 23 22 19 19 16 14 14 14 19 19 18 17 17 16 17 17 18 18 18 16 15 13 11 9 8 8 8 9 10 11 11 12
24 23 22 24 24 24 24 24 24 24 23 23 23 22 21 18 21 21 19 19 19 18 17 18 16 15 16 16 16 17 16 15 12 10 8 8 8 9 10 11 11 12 14
23 24 24 25 26 25 25 25 24 24 24 24 23 21 15 20 22 21 20 20 19 19 18 17 16 14 13 13 14 14 13 12 10 10 11 11 10 11 11 11 12 13 14
26 26 26 27 26 26 26 25 25 24 24 23 23 22 17 21 21 21 21 20 19 18 18 17 16 15 14 13 13 12 12 12 12 12 12 12 12 13 13 13 14 15 16
27 28 27 27 27 26 26 26 25 25 24 24 23 22 21 21 21 21 21 20 19 18 17 17 16 16 14 14 13 13 14 13 13 12 13 14 14 15 15 16 16 17 17
30 30 29 29 28 27 27 26 26 25 24 24 23 22 21 21 21 21 20 20 19 18 17 17 16 15 15 14 13 13 13 13 13 14 14 15 16 16 17 17 18 18 18
32 32 31 31 31 29 28 27 26 27 25 24 23 22 22 21 21 21 20 19 19 19 18 17 15 15 15 15 14 14 14 14 14 14 15 16 17 17 18 18 18 18 19
30 30 32 32 32 32 31 29 28 27 26 24 24 23 23 22 21 21 21 20 20 19 19 17 17 16 15 14 13 13 13 13 15 15 16 16 17 18 18 19 19 19 19